(218870) = 2006 XS53

Discovered at Mount Lemmon on 2006-12-15 by Mt. Lemmon Survey.

Orbit

Orbit type: Main Belt

Note: WebGL enabled browser required.

epoch2023-09-13.0
epoch JD2460200.5
perihelion date2024-01-20.74200
perihelion JD2460330.24200
argument of perihelion (°)34.04001
ascending node (°)248.23868
inclination (°)3.78687
eccentricity0.0665073
perihelion distance (AU)2.2275023
Tisserand w.r.t. Jupiter3.5
ΔV w.r.t. Earth (km/sec)9.4
semimajor axis (AU)2.3862021
mean anomaly (°)325.30846
mean daily motion (°/day)0.26738870
aphelion distance (AU)2.545
period (years)3.69
P-vector [x]0.21153181
P-vector [y]-0.91078462
P-vector [z]-0.35457816
Q-vector [x]0.97544445
Q-vector [y]0.17396387
Q-vector [z]0.13507293
absolute magnitude16.67
phase slope0.15
uncertainty0
referenceMPEC 2023-N43
observations used457
oppositions15
arc length (days)8108
first opposition used2001
last opposition used2023
residual rms (arc-secs)0.76
perturbers coarse indicatorM-v
perturbers precise indicator003Ek
first observation date used2001-04-27.0
last observation date used2023-07-09.0
computer nameMPCLINUX
JD of orbit computation2456581.741402
perihelion JD uncertainty (days)3.4955E-04
argument of perihelion uncertainty (°)1.6547E-04
ascending node uncertainty (°)1.3539E-04
inclination uncertainty (°)6.8453E-06
eccentricity uncertainty 4.2392E-08
perihelion distance uncertainty (AU)1.0120E-07
Minimum Orbit Intersection Distances (in AU)
for orbit epoch: 2460000.5, reference: E2023-N43
Mercury1.76935
Venus1.50182
Earth1.21148
Mars0.73048
Jupiter2.5196
Saturn6.5197
Uranus15.9865
Neptune27.413

Observations

472 total observations over interval: 2001 04 27.42636 – 2023 07 09.169095
These data are available for download (format description).

Date (UT) J2000 RA J2000 Dec Magn Location Ref
2001 04 27.42636 13 57 56.20 -16 01 01.3 20.2   608 – Haleakala-AMOS MPS 239164
2001 04 27.43684 13 57 55.59 -16 00 56.9 20.7   608 – Haleakala-AMOS MPS 239164
2001 04 27.44727 13 57 54.96 -16 00 53.6 20.4   608 – Haleakala-AMOS MPS 239164
2002 10 12.26575 00 19 01.94 +07 56 44.6   704 – Lincoln Laboratory ETS, New Mexico MPS 406970
2002 10 12.29905 00 19 00.17 +07 56 29.0   704 – Lincoln Laboratory ETS, New Mexico MPS 406970
2002 10 12.31552 00 18 59.30 +07 56 22.1   704 – Lincoln Laboratory ETS, New Mexico MPS 406970
2006 10 17.42136 03 30 50.42 +21 39 46.7 20.4 V 691 – Steward Observatory, Kitt Peak-Spacewatch MPS 197116
2006 10 17.43873 03 30 49.69 +21 39 43.2 20.5 V 691 – Steward Observatory, Kitt Peak-Spacewatch MPS 197116
2006 10 17.45611 03 30 48.95 +21 39 39.7 20.3 V 691 – Steward Observatory, Kitt Peak-Spacewatch MPS 197116
2006 11 01.27596 03 18 24.51 +20 38 59.3 19.4 V G96 – Mt. Lemmon Survey MPS 197116
2006 11 01.28387 03 18 24.04 +20 38 57.0 19.4 V G96 – Mt. Lemmon Survey MPS 197116
2006 11 01.29171 03 18 23.54 +20 38 54.8 19.5 V G96 – Mt. Lemmon Survey MPS 197116
2006 11 01.29961 03 18 23.07 +20 38 52.4 19.5 V G96 – Mt. Lemmon Survey MPS 197116
2006 11 09.24630 03 10 24.78 +19 56 46.4   691 – Steward Observatory, Kitt Peak-Spacewatch MPS 192658
2006 11 09.26410 03 10 23.65 +19 56 40.7   691 – Steward Observatory, Kitt Peak-Spacewatch MPS 192658
2006 11 09.28190 03 10 22.51 +19 56 34.9   691 – Steward Observatory, Kitt Peak-Spacewatch MPS 192658
2006 11 17.30483 03 02 13.05 +19 10 22.3 19.6 V 703 – Catalina Sky Survey MPS 192658
2006 11 17.31182 03 02 12.58 +19 10 18.3 19.8 V 703 – Catalina Sky Survey MPS 192658
2006 11 17.31882 03 02 12.15 +19 10 15.9 19.5 V 703 – Catalina Sky Survey MPS 192658
2006 11 17.32587 03 02 11.72 +19 10 15.0 19.6 V 703 – Catalina Sky Survey MPS 192658
2006 12 15.24295 02 41 48.98 +16 49 11.3 20.2 V G96 – Mt. Lemmon Survey MPS 192658
2006 12 15.25120 02 41 48.80 +16 49 09.4 19.6 V G96 – Mt. Lemmon Survey MPS 192658
2006 12 15.25950 02 41 48.58 +16 49 07.6 20.5 V G96 – Mt. Lemmon Survey MPS 192658
2006 12 15.26768 02 41 48.40 +16 49 05.9 20.3 V G96 – Mt. Lemmon Survey MPS 192658
2006 12 17.17995 02 41 09.16 +16 42 34.4 20.4 V G96 – Mt. Lemmon Survey MPS 192658
2006 12 17.18436 02 41 09.09 +16 42 33.6 19.9 V G96 – Mt. Lemmon Survey MPS 192658
2006 12 17.18875 02 41 09.02 +16 42 32.6 19.9 V G96 – Mt. Lemmon Survey MPS 192658
2006 12 17.19319 02 41 08.91 +16 42 32.4 20.4 V G96 – Mt. Lemmon Survey MPS 192658
2007 01 17.15858 02 45 21.85 +16 12 33.5 21.5 V G96 – Mt. Lemmon Survey MPS 196428
2007 01 17.16560 02 45 22.03 +16 12 33.7 20.7 V G96 – Mt. Lemmon Survey MPS 196428
2007 01 17.17278 02 45 22.32 +16 12 34.5 20.9 V G96 – Mt. Lemmon Survey MPS 196428
2007 01 17.17970 02 45 22.50 +16 12 34.7 20.9 V G96 – Mt. Lemmon Survey MPS 196428
2007 02 06.16767 03 00 42.19 +16 55 56.6 21.5 V G96 – Mt. Lemmon Survey MPS 198769
2007 02 06.17718 03 00 42.69 +16 55 58.2 21.0 V G96 – Mt. Lemmon Survey MPS 198769
2007 02 06.18665 03 00 43.20 +16 55 59.6 21.6 V G96 – Mt. Lemmon Survey MPS 198769
2007 02 06.19604 03 00 43.74 +16 56 01.2 21.1 V G96 – Mt. Lemmon Survey MPS 198769
2008 02 09.40248 11 13 13.33 -01 28 02.3 20.0 V 703 – Catalina Sky Survey MPS 237637
2008 02 09.41054 11 13 13.15 -01 28 02.7 19.6 V 703 – Catalina Sky Survey MPS 237637
2008 02 09.41859 11 13 12.90 -01 28 02.1 20.7 V 703 – Catalina Sky Survey MPS 237637
2008 02 09.42664 11 13 12.54 -01 28 01.1 19.4 V 703 – Catalina Sky Survey MPS 237637
2008 02 12.36318 11 11 15.25 -01 20 22.3 20.1 V G96 – Mt. Lemmon Survey MPS 237637
2008 02 12.36954 11 11 14.96 -01 20 21.3 20.0 V G96 – Mt. Lemmon Survey MPS 237637
2008 02 12.37593 11 11 14.71 -01 20 20.3 20.1 V G96 – Mt. Lemmon Survey MPS 237637
2008 02 12.38229 11 11 14.38 -01 20 19.1 20.2 V G96 – Mt. Lemmon Survey MPS 237637
2008 02 29.65385 10 56 42.29 -00 05 28.0 19.8 R D29 – Purple Mountain Observatory, XuYi Station MPS 240816
2008 02 29.66951 10 56 41.36 -00 05 22.5 19.9 R D29 – Purple Mountain Observatory, XuYi Station MPS 240816
2008 02 29.68479 10 56 40.49 -00 05 17.2 19.8 R D29 – Purple Mountain Observatory, XuYi Station MPS 240816
2008 02 29.70052 10 56 39.57 -00 05 12.4 20.0 R D29 – Purple Mountain Observatory, XuYi Station MPS 240816
2008 03 02.32883 10 55 07.77 +00 03 58.2 19.2   704 – Lincoln Laboratory ETS, New Mexico MPS 240816
2008 03 02.34022 10 55 07.16 +00 04 03.2 19.3   704 – Lincoln Laboratory ETS, New Mexico MPS 240816
2008 03 02.35159 10 55 06.51 +00 04 06.9 19.5   704 – Lincoln Laboratory ETS, New Mexico MPS 240816
2008 03 02.37451 10 55 05.24 +00 04 14.4 19.8   704 – Lincoln Laboratory ETS, New Mexico MPS 240816
2008 03 07.31565 10 50 25.65 +00 33 28.1 19.5 V G96 – Mt. Lemmon Survey MPS 242203
2008 03 07.31877 10 50 25.47 +00 33 29.3 19.5 V G96 – Mt. Lemmon Survey MPS 242203
2008 03 07.32185 10 50 25.29 +00 33 30.4 19.8 V G96 – Mt. Lemmon Survey MPS 242203
2008 03 07.32498 10 50 25.11 +00 33 31.2 19.5 V G96 – Mt. Lemmon Survey MPS 242203
2008 03 08.29025 10 49 30.93 +00 39 23.8 19.9 V 703 – Catalina Sky Survey MPS 242203
2008 03 08.29678 10 49 30.61 +00 39 27.7 19.7 V 703 – Catalina Sky Survey MPS 242203
2008 03 08.30333 10 49 30.07 +00 39 29.9 19.4 V 703 – Catalina Sky Survey MPS 242203
2008 03 08.30985 10 49 29.82 +00 39 32.7 19.7 V 703 – Catalina Sky Survey MPS 242203
2008 03 09.24262 10 48 37.80 +00 45 17.5   291 – LPL/Spacewatch II MPS 242203
2008 03 09.24651 10 48 37.57 +00 45 18.8   291 – LPL/Spacewatch II MPS 242203
2008 03 09.25026 10 48 37.36 +00 45 20.2   291 – LPL/Spacewatch II MPS 242203
2008 03 10.27016 10 47 40.73 +00 51 39.3 19.5   704 – Lincoln Laboratory ETS, New Mexico MPS 242203
2008 03 10.27853 10 47 40.23 +00 51 42.1 19.4   704 – Lincoln Laboratory ETS, New Mexico MPS 242203
2008 03 10.28124 10 47 39.99 +00 51 44.0 19.8   704 – Lincoln Laboratory ETS, New Mexico MPS 242203
2008 03 10.28962 10 47 39.57 +00 51 46.6 19.5   704 – Lincoln Laboratory ETS, New Mexico MPS 242203
2008 03 10.29233 10 47 39.38 +00 51 48.0 19.7   704 – Lincoln Laboratory ETS, New Mexico MPS 242203
2008 03 10.30072 10 47 38.94 +00 51 50.7 19.4   704 – Lincoln Laboratory ETS, New Mexico MPS 242203
2008 03 10.30343 10 47 38.80 +00 51 51.4 19.7   704 – Lincoln Laboratory ETS, New Mexico MPS 242203
2008 03 10.31180 10 47 38.32 +00 51 55.8 19.8   704 – Lincoln Laboratory ETS, New Mexico MPS 242203
2008 03 10.31451 10 47 38.22 +00 51 55.2 19.7   704 – Lincoln Laboratory ETS, New Mexico MPS 242203
2008 03 10.31722 10 47 37.96 +00 51 55.9 19.7 V G96 – Mt. Lemmon Survey MPS 242203
2008 03 10.32285 10 47 37.66 +00 51 58.9 20.3   704 – Lincoln Laboratory ETS, New Mexico MPS 242203
2008 03 10.32577 10 47 37.50 +00 51 59.3 19.8 V G96 – Mt. Lemmon Survey MPS 242203
2008 03 10.33443 10 47 36.99 +00 52 02.5 19.7 V G96 – Mt. Lemmon Survey MPS 242203
2008 03 10.34302 10 47 36.49 +00 52 05.5 19.5 V G96 – Mt. Lemmon Survey MPS 242203
2008 03 12.26346 10 45 51.44 +01 04 03.5 19.7 V G96 – Mt. Lemmon Survey MPS 242203
2008 03 12.26919 10 45 51.12 +01 04 05.7 19.7 V G96 – Mt. Lemmon Survey MPS 242203
2008 03 12.27502 10 45 50.79 +01 04 07.9 19.8 V G96 – Mt. Lemmon Survey MPS 242203
2008 03 12.28086 10 45 50.47 +01 04 10.1 19.7 V G96 – Mt. Lemmon Survey MPS 242203
2009 07 25.97549 21 09 30.48 -10 02 51.1 19.2 V J75 – OAM Observatory, La Sagra MPS 290259
2009 07 25.98786 21 09 29.76 -10 02 53.3 18.9 V J75 – OAM Observatory, La Sagra MPS 290259
2009 07 26.00024 21 09 29.16 -10 02 56.1 19.6 V J75 – OAM Observatory, La Sagra MPS 290259
2009 07 27.29139 21 08 19.96 -10 05 52.0 19.1 V 703 – Catalina Sky Survey MPS 290259
2009 07 27.29977 21 08 19.50 -10 05 53.3 19.2 V 703 – Catalina Sky Survey MPS 290259
2009 07 27.30817 21 08 18.92 -10 05 53.8 19.4 V 703 – Catalina Sky Survey MPS 290259
2009 07 27.31663 21 08 18.52 -10 05 54.6 19.5 V 703 – Catalina Sky Survey MPS 290259
2009 08 18.86255 20 47 36.89 -11 18 26.8 20.1 V J75 – OAM Observatory, La Sagra MPS 291777
2009 08 18.87521 20 47 36.25 -11 18 30.1 19.3 V J75 – OAM Observatory, La Sagra MPS 291777
2009 08 18.88769 20 47 35.62 -11 18 32.9 19.4 V J75 – OAM Observatory, La Sagra MPS 291777
2011 01 27.19608 05 11 20.83 +20 30 11.4 20.9 V G96 – Mt. Lemmon Survey MPS 368374
